Погода в Долгове

Россия / Пензенская область     53°23′47″N   42°19′45″E
темп.,
°C
ветер,
м/с
пор.,
м/с
влажн.,
%
обл.,
%
осадки,
мм/ч
давл.,
гПа
погр.,
м
28 ноября, вс
вс2800:000ю71696100 2.8 1009670
03:00+1ю61397100 3.0 1008528
06:00+1ю51199100 0.2 1008381
09:00+2ю410100100 0.2 1009303
12:00+2ю410100100 0.0 1009274
15:00+2ююз27100100 0.0 1011171
18:00+2ю26100100 0.1 1012124
21:00+2ю27100100 0.1 1012133
29 ноября, пн
пн2900:00+2ююв25100100 0.1 101390
03:00+2ююв37100100 0.1 1013137
06:00+2юв39100100 0.0 1011181
09:00+3юв51499100 0.5 1009354
12:00+4ююв71898100 3.2 1005692
15:00+5ю71797100 6.0 1002742
18:00+6ю61696100 1.2 1001583
21:00+6ююв61596100 2.6 997434
30 ноября, вт
вт3000:00+7ююв71795100 3.4 992805
03:00+9ю91993100 6.8 9871107
06:00+9ю10198788 0.7 9841110
09:00+10ююз112176100 1.1 9841624
12:00+5юз112272100 0.1 9861496
15:00+3юз11226993 0.1 9871488
18:00+2юз112070100 0.0 9901254
21:00+2юз9167187 0.0 9911095
1 декабря, ср
ср100:00+1юз6127483 0.0 9921039
03:000юз5127899 0.0 992757
06:000юз4981100 0.0 991775
09:00−1юз4882100 0.1 993957
12:000зюз587297 0.1 9921110
15:00−1зюз6107290 0.1 9921299
18:00−2зюз51193100 0.1 993772
21:00−2з51094100 1.1 994746
2 декабря, чт
чт200:00−3з61093100 1.7 997802
03:00−4зсз61083100 2.1 1000840
06:00−5з51184100 0.0 1003723
09:00−5зюз498588 0.0 1005599
12:00−3зюз5870100 0.0 1006595
15:00−3ююз41169100 0.0 1007584
18:00−2ююз6149399 0.1 1006725
21:00−1ююз61595100 0.6 1006713